Location: Unspecified
(52.1971°N, 0.0000°E)
Time: 11:15:48
(UTC+00:00)

ISS - Pass Details

Date: 22 May 2019
Orbit: 408 x 418 km, 51.6° (Epoch: 19 June)

Event Time Altitude Azimuth Distance (km) Brightness Sun altitude
Rises 20:33:49 0° 238° (WSW) 2,347 0.2 -5.0°
Reaches altitude 10° 20:35:56 10° 232° (SW) 1,489 -0.8 -5.3°
Maximum altitude 20:39:09 45° 158° (SSE) 577 -3.4 -5.6°
Drops below altitude 10° 20:42:23 10° 84° (E) 1,501 -1.3 -6.0°
Sets 20:44:36 0° 78° (ENE) 2,391 -0.2 -6.2°
